Weather History for El Centro, CA

Change the Weather History Date:

Monday, May 7, 2012

  Actual Average Record
Temperature  
Mean Temperature 78 °F -  
Max Temperature 96 °F 89 °F 102 °F (1997)
Min Temperature 61 °F 63 °F 57 °F (2007)
Cooling Degree Days 13    
Growing Degree Days 28 (Base 50)    
Moisture  
Dew Point 26 °F    
Average Humidity 17    
Maximum Humidity 41    
Minimum Humidity 4    
Precipitation  
Precipitation 0.00 in - - ()
Sea Level Pressure  
Sea Level Pressure 29.84 in    
Wind  
Wind Speed 7 mph (WNW)    
Max Wind Speed 15 mph    
Max Gust Speed -    
Visibility 10 miles    
Events      
Averages and records for this station are not official NWS values.
T = Trace of Precipitation, MM = Missing Value Source: NWS Daily Summary

Daily Weather History Graph

Daily Weather History Graph

Search for Another Location

Airport:

Trip Planner

Search our weather history database for the weather conditions in past years. The results will help you decide how hot, cold, wet, or windy it might be!

Date:

Astronomy

May. 07, 2012 Rise Set
Actual Time 5:49 AM PDT 7:29 PM PDT
Civil Twilight 5:22 AM PDT 7:56 PM PDT
Nautical Twilight 4:50 AM PDT 8:28 PM PDT
Astronomical Twilight 4:16 AM PDT 9:02 PM PDT
Moon 9:40 PM PDT (5/7) 7:03 AM PDT (5/7)
Length of Visible Light 14h 33m
Length of Day
13h 39m
Waning Gibbous, 96% of the Moon is Illuminated
May 7
Waning Gibbous
May 12
Last Quarter
May 20
New
May 28
First Quarter
Jun 4
Full

Hourly Weather History & Observations

Time (PDT) Temp. Dew Point Humidity Pressure Visibility Wind Dir Wind Speed Gust Speed Precip Events Conditions
12:56 AM 70.0 °F 39.9 °F 33% 29.84 in 10.0 mi West 10.4 mph - N/A   Clear
1:56 AM 68.0 °F 41.0 °F 37% 29.83 in 10.0 mi West 8.1 mph - N/A   Clear
2:55 AM - - N/A% - - North - - N/A   Unknown
2:56 AM 68.0 °F 39.9 °F 36% 29.83 in 10.0 mi Calm Calm - N/A   Clear
3:56 AM 66.9 °F 39.0 °F 36% 29.84 in 10.0 mi Calm Calm - N/A   Clear
4:56 AM 66.0 °F 39.0 °F 37% 29.84 in 10.0 mi West 4.6 mph - N/A   Clear
5:56 AM 61.0 °F 37.0 °F 41% 29.85 in 10.0 mi West 3.5 mph - N/A   Clear
6:56 AM 66.2 °F 35.6 °F 32% - 10.0 mi WSW 5.8 mph - N/A   Clear
7:56 AM 75.0 °F 36.0 °F 24% 29.90 in 10.0 mi Calm Calm - N/A   Clear
8:56 AM 82.0 °F 39.0 °F 22% 29.91 in 10.0 mi North 8.1 mph - N/A   Clear
9:56 AM 90.0 °F 25.0 °F 10% 29.91 in 10.0 mi North 15.0 mph - N/A   Clear
10:56 AM 91.9 °F 15.1 °F 6% 29.91 in 10.0 mi NW 10.4 mph - N/A   Clear
11:56 AM 93.0 °F 16.0 °F 6% 29.91 in 10.0 mi WNW 9.2 mph - N/A   Clear
12:56 PM 93.9 °F 12.9 °F 5% 29.89 in 10.0 mi WNW 8.1 mph - N/A   Clear
1:56 PM 93.9 °F 10.0 °F 4% 29.86 in 10.0 mi Variable 5.8 mph - N/A   Clear
2:56 PM 93.9 °F 14.0 °F 5% 29.83 in 8.0 mi East 8.1 mph - N/A   Clear
3:17 PM 91.4 °F 14.0 °F 6% 29.77 in 8.0 mi Calm Calm - N/A   Clear
3:56 PM 95.0 °F 16.0 °F 6% 29.81 in 10.0 mi Variable 6.9 mph - N/A   Clear
4:56 PM 95.0 °F 9.0 °F 4% 29.79 in 10.0 mi NNE 9.2 mph - N/A   Clear
5:56 PM 93.0 °F 17.1 °F 6% 29.78 in 10.0 mi East 4.6 mph - N/A   Clear
6:56 PM 91.0 °F 16.0 °F 6% 29.78 in 10.0 mi Calm Calm - N/A   Clear
7:56 PM 82.4 °F 32.0 °F 16% 29.80 in 10.0 mi SSW 6.9 mph - N/A   Clear
8:56 PM 80.1 °F 27.0 °F 14% 29.81 in 10.0 mi WSW 8.1 mph - N/A   Clear
9:56 PM 80.1 °F 24.1 °F 13% 29.83 in 10.0 mi West 10.4 mph - N/A   Scattered Clouds
10:08 PM 32.0 °F 32.0 °F 100% - - North - - N/A   Unknown
10:56 PM 79.0 °F 30.0 °F 17% 29.83 in 10.0 mi WSW 3.5 mph - N/A   Scattered Clouds
11:56 PM 80.1 °F 28.0 °F 15% 29.85 in 10.0 mi NW 10.4 mph - N/A   Clear